Weather History for K4O4 - July, 2013

Change the Weather History Date:

Tuesday, July 2, 2013

  Actual Average (KDEQ) Record (KDEQ)
Temperature  
Mean Temperature 74 °F 80 °F  
Max Temperature 89 °F 91 °F 103 °F (1988)
Min Temperature 59 °F 70 °F 56 °F (1950)
Degree Days  
Heating Degree Days 0 0  
Month to date heating degree days 0  
Since 1 June heating degree days 0  
Since 1 July heating degree days 0  
Cooling Degree Days 9 16  
Month to date cooling degree days 31  
Year to date cooling degree days 626  
Since 1 June cooling degree days 409  
Growing Degree Days 24 (Base 50)    
Moisture  
Dew Point 53 °F    
Average Humidity 56    
Maximum Humidity 88    
Minimum Humidity 21    
Precipitation  
Precipitation 0.00 in 0.15 in 4.96 in (1983)
Month to date precipitation 0.31  
Year to date precipitation 25.95  
Snow  
Snow 0.00 in - - ()
Month to date snowfall  
Since 1 June snowfall  
Since 1 July snowfall  
Snow Depth -    
Sea Level Pressure  
Sea Level Pressure 30.03 in    
Wind  
Wind Speed 4 mph (North)    
Max Wind Speed 9 mph    
Max Gust Speed 16 mph    
Visibility 10 miles    
Events      
T = Trace of Precipitation, MM = Missing Value Source: NWS Daily Summary

Daily Weather History Graph

Daily Weather History Graph

Search for Another Location

Airport or City:

Trip Planner

Search our weather history database for the weather conditions in past years. The results will help you decide how hot, cold, wet, or windy it might be!

Date:

Astronomy

Jul. 02, 2013 Rise Set
Actual Time 6:12 AM CDT 8:34 PM CDT
Civil Twilight 5:43 AM CDT 9:03 PM CDT
Nautical Twilight 5:07 AM CDT 9:38 PM CDT
Astronomical Twilight 4:28 AM CDT 10:17 PM CDT
Moon 2:07 AM CDT (7/2) 3:55 PM CDT (7/2)
Length of Visible Light 15h 19m
Length of Day
14h 21m
Waning Crescent, 26% of the Moon is Illuminated
Jul 2
Waning Crescent
Jul 8
New
Jul 15
First Quarter
Jul 22
Full
Jul 29
Last Quarter

Hourly Weather History & Observations

Time (CDT) Temp. Heat Index Dew Point Humidity Pressure Visibility Wind Dir Wind Speed Gust Speed Precip Events Conditions
12:15 AM 66.2 °F - 59.0 °F 78% 30.01 in 10.0 mi NNW 6.9 mph - N/A   Clear
12:35 AM 64.4 °F - 59.0 °F 83% 30.01 in 10.0 mi North 5.8 mph - N/A   Clear
12:55 AM 64.4 °F - 59.0 °F 83% 30.01 in 10.0 mi North 4.6 mph - N/A   Clear
1:15 AM 64.4 °F - 59.0 °F 83% 30.01 in 10.0 mi North 4.6 mph - N/A   Clear
1:35 AM 62.6 °F - 59.0 °F 88% 30.01 in 10.0 mi North 4.6 mph - N/A   Clear
1:55 AM 62.6 °F - 57.2 °F 82% 30.01 in 10.0 mi North 3.5 mph - N/A   Clear
2:15 AM 62.6 °F - 57.2 °F 82% 30.00 in 10.0 mi North 3.5 mph - N/A   Clear
2:35 AM 60.8 °F - 55.4 °F 82% 30.00 in 10.0 mi Calm Calm - N/A   Clear
2:55 AM 60.8 °F - 55.4 °F 82% 30.00 in 10.0 mi Calm Calm - N/A   Clear
3:15 AM 60.8 °F - 55.4 °F 82% 30.00 in 10.0 mi Calm Calm - N/A   Clear
3:35 AM 60.8 °F - 55.4 °F 82% 30.00 in 10.0 mi North 4.6 mph - N/A   Clear
3:55 AM 60.8 °F - 55.4 °F 82% 30.01 in 10.0 mi North 3.5 mph - N/A   Clear
4:15 AM 60.8 °F - 55.4 °F 82% 30.01 in 10.0 mi North 3.5 mph - N/A   Clear
4:35 AM 59.0 °F - 55.4 °F 88% 30.01 in 10.0 mi Calm Calm - N/A   Clear
4:55 AM 59.0 °F - 55.4 °F 88% 30.02 in 10.0 mi North 3.5 mph - N/A   Clear
5:15 AM 59.0 °F - 53.6 °F 82% 30.02 in 10.0 mi North 3.5 mph - N/A   Clear
5:35 AM 59.0 °F - 53.6 °F 82% 30.03 in 10.0 mi North 3.5 mph - N/A   Clear
5:55 AM 59.0 °F - 53.6 °F 82% 30.03 in 10.0 mi Calm Calm - N/A   Clear
6:15 AM 59.0 °F - 53.6 °F 82% 30.04 in 10.0 mi North 3.5 mph - N/A   Clear
6:35 AM 59.0 °F - 53.6 °F 82% 30.04 in 10.0 mi North 4.6 mph - N/A   Clear
6:55 AM 59.0 °F - 53.6 °F 82% 30.04 in 10.0 mi North 3.5 mph - N/A   Clear
7:15 AM 59.0 °F - 55.4 °F 88% 30.05 in 10.0 mi Calm Calm - N/A   Clear
7:35 AM 60.8 °F - 57.2 °F 88% 30.05 in 10.0 mi Calm Calm - N/A   Clear
7:55 AM 64.4 °F - 59.0 °F 83% 30.06 in 10.0 mi Calm Calm - N/A   Clear
8:15 AM 68.0 °F - 57.2 °F 68% 30.06 in 10.0 mi NNW 3.5 mph - N/A   Clear
8:35 AM 69.8 °F - 57.2 °F 64% 30.07 in 10.0 mi North 3.5 mph - N/A   Clear
9:15 AM 73.4 °F - 59.0 °F 61% 30.07 in 10.0 mi North 3.5 mph - N/A   Clear
9:35 AM 73.4 °F - 60.8 °F 65% 30.07 in 10.0 mi NNE 4.6 mph - N/A   Clear
9:55 AM 77.0 °F - 59.0 °F 54% 30.08 in 10.0 mi North 3.5 mph - N/A   Clear
10:15 AM 78.8 °F - 57.2 °F 47% 30.08 in 10.0 mi Calm Calm - N/A   Clear
10:35 AM 80.6 °F 80.5 °F 55.4 °F 42% 30.07 in 10.0 mi Calm Calm - N/A   Clear
10:55 AM 80.6 °F 80.8 °F 57.2 °F 45% 30.07 in 10.0 mi WNW 4.6 mph - N/A   Clear
11:15 AM 82.4 °F 82.5 °F 59.0 °F 45% 30.08 in 10.0 mi Calm Calm - N/A   Clear
11:35 AM 82.4 °F 81.7 °F 55.4 °F 39% 30.07 in 10.0 mi WNW 4.6 mph - N/A   Scattered Clouds
11:55 AM 82.4 °F 81.4 °F 53.6 °F 37% 30.07 in 10.0 mi North 3.5 mph - N/A   Clear
12:15 PM 84.2 °F - 51.8 °F 33% 30.07 in 10.0 mi North 6.9 mph - N/A   Clear
12:35 PM 84.2 °F - 51.8 °F 33% 30.07 in 10.0 mi NW 3.5 mph - N/A   Scattered Clouds
12:55 PM 82.4 °F - 51.8 °F 35% 30.06 in 10.0 mi North 4.6 mph - N/A   Clear
1:15 PM 86.0 °F - 51.8 °F 31% 30.05 in 10.0 mi Calm Calm - N/A   Clear
1:35 PM 86.0 °F - 51.8 °F 31% 30.05 in 10.0 mi WNW 9.2 mph - N/A   Clear
1:55 PM 86.0 °F - 48.2 °F 27% 30.04 in 10.0 mi Calm Calm - N/A   Clear
2:15 PM 87.8 °F - 48.2 °F 25% 30.04 in 10.0 mi WNW 3.5 mph 9.2 mph N/A   Clear
2:35 PM 87.8 °F - 42.8 °F 21% 30.04 in 10.0 mi Calm Calm - N/A   Clear
2:55 PM 87.8 °F - 44.6 °F 22% 30.03 in 10.0 mi NNW 3.5 mph 16.1 mph N/A   Clear
3:15 PM 87.8 °F - 44.6 °F 22% 30.02 in 10.0 mi North 5.8 mph - N/A   Clear
3:35 PM 87.8 °F - 44.6 °F 22% 30.02 in 10.0 mi NNW 4.6 mph - N/A   Clear
3:55 PM 87.8 °F - 42.8 °F 21% 30.02 in 10.0 mi North 6.9 mph - N/A   Clear
4:15 PM 89.6 °F - 44.6 °F 21% 30.02 in 10.0 mi North 6.9 mph - N/A   Clear
4:35 PM 89.6 °F - 46.4 °F 22% 30.02 in 10.0 mi NNE 5.8 mph - N/A   Clear
4:55 PM 89.6 °F - 46.4 °F 22% 30.01 in 10.0 mi NNE 8.1 mph - N/A   Clear
5:15 PM 87.8 °F - 44.6 °F 22% 30.01 in 10.0 mi North 6.9 mph - N/A   Clear
5:35 PM 86.0 °F - 50.0 °F 29% 30.00 in 10.0 mi NNE 5.8 mph - N/A   Clear
5:55 PM 87.8 °F - 48.2 °F 25% 30.00 in 10.0 mi NNE 6.9 mph - N/A   Clear
6:15 PM 87.8 °F - 48.2 °F 25% 30.00 in 10.0 mi East 5.8 mph - N/A   Clear
6:35 PM 87.8 °F - 46.4 °F 24% 30.00 in 10.0 mi North 3.5 mph - N/A   Clear
6:55 PM 86.0 °F - 50.0 °F 29% 30.00 in 10.0 mi North 5.8 mph - N/A   Clear
7:15 PM 86.0 °F - 51.8 °F 31% 30.01 in 10.0 mi North 3.5 mph - N/A   Clear
7:35 PM 82.4 °F 81.4 °F 53.6 °F 37% 30.01 in 10.0 mi NE 3.5 mph - N/A   Clear
7:55 PM 80.6 °F - 51.8 °F 37% 30.01 in 10.0 mi NE 3.5 mph - N/A   Clear
8:15 PM 78.8 °F - 53.6 °F 42% 30.02 in 10.0 mi North 3.5 mph - N/A   Clear
8:35 PM 73.4 °F - 55.4 °F 53% 30.02 in 10.0 mi Calm Calm - N/A   Clear
8:55 PM 71.6 °F - 53.6 °F 53% 30.02 in 10.0 mi Calm Calm - N/A   Clear
9:15 PM 71.6 °F - 53.6 °F 53% 30.02 in 10.0 mi Calm Calm - N/A   Clear
9:35 PM 69.8 °F - 55.4 °F 60% 30.03 in 10.0 mi Calm Calm - N/A   Clear
9:55 PM 68.0 °F - 55.4 °F 64% 30.03 in 10.0 mi NNE 3.5 mph - N/A   Clear
10:15 PM 66.2 °F - 55.4 °F 68% 30.04 in 10.0 mi North 4.6 mph - N/A   Clear
10:35 PM 64.4 °F - 55.4 °F 73% 30.04 in 10.0 mi NNE 3.5 mph - N/A   Clear
10:55 PM 64.4 °F - 55.4 °F 73% 30.04 in 10.0 mi Calm Calm - N/A   Clear
11:15 PM 64.4 °F - 55.4 °F 73% 30.05 in 10.0 mi NE 3.5 mph - N/A   Clear
11:35 PM 62.6 °F - 55.4 °F 77% 30.05 in 10.0 mi Calm Calm - N/A   Clear
11:55 PM 62.6 °F - 55.4 °F 77% 30.05 in 10.0 mi Calm Calm - N/A   Clear